Regional Weather Roundup
Issued by NWS Charleston, WV

Home | Current Version | Previous Version | Graphics & Text | Print | Product List | Glossary On
Versions: 1 2 3 4 5 6 7 8 9 10 11 12 13 14 15 16 17 18 19 20 21 22 23 24 25 26 27 28 29 30 31 32 33 34 35 36 37 38 39 40 41 42 43 44 45 46 47 48 49 50
000
ASUS41 KRLX 311110
RWRRLX
West Virginia Regional Weather Roundup
National Weather Service Charleston WV
700 AM EDT THU JUL 31 2014

Note: "fair" indicates few or no clouds below 12,000 feet with no
significant weather and/or obstructions to visibility.

WVZ003-311200-
Northern Panhandle of West Virginia

CITY           SKY/WX    TMP DP  RH WIND       PRES   REMARKS
WHEELING       CLOUDY    59  57  93 S3        30.08R FOG
$$

WVZ009-311200-
Northwest West Virginia

CITY           SKY/WX    TMP DP  RH WIND       PRES   REMARKS
PARKERSBURG    PTCLDY    56  55  97 CALM      30.12R FOG
$$

WVZ006-311200-
Western West Virginia

CITY           SKY/WX    TMP DP  RH WIND       PRES   REMARKS
HUNTINGTON     CLEAR     56  56 100 S3        30.11R
$$

WVZ015-311200-
West Central West Virginia

CITY           SKY/WX    TMP DP  RH WIND       PRES   REMARKS
CHARLESTON     MOCLDY    59  59 100 CALM      30.11R FOG
$$

WVZ031-311200-
North Central West Virginia

CITY           SKY/WX    TMP DP  RH WIND       PRES   REMARKS
CLARKSBURG     CLEAR     56  54  93 CALM      30.12R FOG
MORGANTOWN     CLEAR     61  55  81 S3        30.12R
$$

WVZ035-042-045-311200-
South Central West Virginia

CITY           SKY/WX    TMP DP  RH WIND       PRES   REMARKS
BECKLEY        CLEAR     56  52  86 CALM      30.18R
BLUEFIELD      PTCLDY    59  52  77 SW3       30.20R
LEWISBURG      PTCLDY    52  50  93 CALM      30.18R FOG
$$

WVZ047-311200-
Northern Mountains of West Virginia

CITY           SKY/WX    TMP DP  RH WIND       PRES   REMARKS
ELKINS         PTCLDY    52  49  89 CALM      30.17R FOG
$$

WVZ052-311200-
Eastern Panhandle of West Virginia

CITY           SKY/WX    TMP DP  RH WIND       PRES   REMARKS
MARTINSBURG    CLEAR     58  55  90 CALM      30.10R FOG
PETERSBURG     FOG       53  50  89 CALM      30.13R VSB<1/4
$$



USA.gov is the U.S. government's official web portal to all federal, state and local government web resources and services.